Temperature
7 6 6 7 8 8 8 8 8 9 10 10 9 10 10 11 11 11 11 12 12 12 12 12 13 12 12 12 12 12 12 12 13 13 13 13 13 13 13 13 14 14 14 14
7 6 7 8 9 8 8 7 7 9 10 10 9 10 10 11 11 11 11 12 12 12 12 12 12 12 12 12 12 12 12 12 12 12 12 13 13 13 13 13 14 14 14 14
6 7 9 8 8 8 8 7 7 8 9 10 9 9 10 11 11 12 12 12 12 12 12 12 12 12 12 12 12 12 12 12 12 12 12 12 12 13 13 13 13 13 13 13
7 8 8 8 7 8 7 9 9 9 8 8 9 8 9 10 11 11 11 11 11 11 12 11 11 11 11 11 11 11 11 12 12 12 12 12 12 12 12 13 13 13 13 13
7 8 7 7 8 8 8 9 9 8 8 7 8 8 8 10 10 10 10 11 11 11 11 11 11 11 11 11 11 11 11 11 12 12 12 12 12 12 12 12 12 13 13 13
8 8 8 8 8 8 8 8 8 8 8 7 9 8 8 9 9 10 10 10 10 10 10 11 11 11 11 11 11 11 11 11 11 11 12 12 12 12 12 12 12 12 12 12
8 8 8 8 8 8 8 7 7 8 8 8 10 9 8 9 9 10 10 10 10 10 10 10 10 10 10 10 11 11 11 11 11 11 11 11 11 12 12 12 12 12 12 12
7 7 8 8 8 8 8 8 7 8 9 9 10 9 8 9 9 9 9 9 9 9 9 9 9 9 10 10 10 10 11 11 11 11 11 11 11 11 12 12 12 12 12 12
7 7 9 9 9 8 8 8 9 8 9 9 9 9 9 9 9 8 8 8 7 7 7 8 8 8 9 9 10 10 10 10 11 11 11 11 11 11 11 11 11 11 11 12
8 8 9 9 9 9 9 9 8 8 9 9 10 9 8 8 8 8 7 7 6 6 6 7 7 8 8 9 9 9 10 10 10 11 11 11 11 11 11 11 11 11 11 11
9 8 8 9 8 8 9 9 9 9 9 9 9 8 8 8 8 7 7 6 6 6 6 6 6 7 7 8 8 9 9 9 10 10 10 10 10 10 10 10 11 11 11 10
9 8 8 9 10 10 9 9 9 8 8 9 8 7 8 8 7 7 7 6 6 5 5 5 6 6 7 7 8 8 9 9 9 9 9 10 10 10 10 10 10 10 10 10
9 9 8 8 9 9 9 10 10 9 9 8 8 7 8 7 7 7 6 6 5 5 5 5 6 6 6 6 7 8 8 8 9 9 9 9 9 9 9 10 10 10 10 10
10 8 7 7 8 9 9 9 10 9 8 8 8 7 7 7 7 7 6 6 5 5 5 5 5 5 6 6 6 7 7 8 8 8 8 9 9 9 9 9 9 9 9 9
10 8 8 8 9 9 9 9 9 9 9 8 8 8 7 7 7 7 6 6 5 5 4 4 4 4 5 6 6 6 6 7 7 7 7 8 8 8 8 8 8 8 9 8
10 9 8 8 9 9 9 9 9 9 9 9 9 8 7 7 7 6 6 5 5 4 4 4 4 4 4 5 5 5 6 6 6 7 7 7 7 7 7 7 8 8 8 8
9 9 7 8 9 9 8 8 8 8 8 8 8 7 7 7 6 6 5 5 4 4 3 3 3 3 4 4 4 4 5 5 5 5 6 6 6 6 6 6 6 7 7 7
8 8 7 7 8 7 7 8 8 8 8 8 8 7 7 6 6 5 5 4 4 3 3 3 3 3 3 3 4 4 4 4 4 4 4 4 5 5 5 5 5 5 6 6
8 8 7 7 8 8 7 7 7 8 7 7 7 7 6 6 5 4 4 3 3 3 2 2 3 3 3 3 3 3 3 3 3 3 3 3 3 4 4 4 4 4 4 5
8 8 7 7 7 8 7 7 7 7 6 7 7 6 6 5 4 3 3 3 3 2 2 2 2 2 2 2 2 2 2 2 2 2 2 2 2 2 3 3 3 3 3 3
7 7 7 7 7 7 7 7 7 6 6 6 6 6 5 4 3 3 3 2 2 2 2 2 2 2 1 1 1 1 1 1 1 1 1 1 1 1 2 2 2 2 2 2
7 7 7 7 7 6 6 6 6 5 6 6 5 5 4 4 3 3 2 2 2 1 1 1 1 1 1 0 0 0 0 0 0 0 0 0 0 0 0 1 1 1 1 1
7 7 6 6 6 6 6 6 5 5 5 5 4 4 3 3 2 2 2 1 1 1 0 0 0 -0 -0 -0 -0 -0 -1 -1 -1 -1 -1 -1 -1 -1 -1 -1 -0 0 0 0
7 6 6 6 6 6 6 5 5 5 4 4 3 3 3 2 2 1 1 1 0 0 -0 -0 -1 -1 -1 -1 -1 -1 -1 -1 -1 -2 -1 -2 -2 -2 -1 -1 -1 -1 -1 -1
7 6 5 5 6 6 5 5 4 4 3 3 3 2 2 2 1 1 0 0 -0 -0 -1 -1 -1 -1 -1 -2 -2 -2 -2 -2 -2 -2 -2 -3 -3 -3 -2 -2 -2 -2 -2 -2
5 5 4 5 6 5 5 5 4 3 3 3 2 2 2 1 1 0 0 -0 -1 -1 -1 -1 -2 -2 -2 -2 -2 -2 -3 -3 -3 -3 -3 -3 -4 -4 -3 -3 -3 -3 -3 -2
Wind_Speed
6 5 6 7 9 11 11 11 12 11 8 8 11 13 12 10 10 9 8 8 7 8 7 6 6 6 5 5 5 5 5 6 5 4 5 6 7 6 6 5 7 8 9 10
4 8 10 10 9 10 11 11 12 10 6 7 9 11 10 9 9 8 8 7 6 6 5 5 5 5 5 6 6 5 6 6 7 5 4 3 5 5 5 5 5 7 8 8
6 4 4 6 7 9 10 10 9 8 9 8 8 8 8 7 6 5 5 4 4 6 6 5 6 5 4 4 5 5 6 6 6 5 4 3 3 3 3 5 5 5 7 7
4 6 6 6 7 7 8 7 8 7 5 4 3 3 5 4 2 2 2 2 3 4 4 5 5 5 6 5 4 5 5 5 6 6 5 6 5 5 5 5 4 5 5 6
3 2 3 4 5 5 5 6 7 7 6 5 4 3 3 3 3 3 1 0 1 2 3 3 3 3 5 5 4 4 4 4 4 4 6 6 6 5 4 5 5 5 5 5
5 3 2 3 4 4 5 5 6 4 3 3 2 1 3 5 6 5 3 3 2 2 3 4 4 4 4 3 3 4 4 3 3 4 5 6 7 7 7 6 6 5 3 4
2 2 2 2 3 2 3 3 2 2 2 1 1 3 4 7 8 7 5 5 5 4 5 5 6 6 5 3 2 3 4 3 2 3 4 5 6 6 7 7 7 6 4 4
1 1 1 1 2 2 3 3 3 3 1 0 3 3 4 7 8 9 9 8 7 7 8 8 7 7 6 5 4 3 4 2 2 2 2 2 3 3 3 4 4 6 5 5
2 1 1 2 2 1 2 2 3 3 3 0 3 4 4 8 9 10 11 11 10 10 10 9 9 8 7 7 6 4 4 4 2 2 1 1 1 2 2 3 3 4 4 5
2 1 1 1 2 3 3 4 4 2 3 1 4 5 5 7 8 9 11 10 10 10 10 10 9 9 9 8 7 7 6 5 5 4 2 1 0 1 2 2 4 4 4 5
2 1 1 0 1 3 2 3 4 3 3 2 3 4 5 5 6 8 9 9 9 10 9 9 9 8 9 9 8 8 7 7 6 5 3 3 2 1 1 2 2 3 4 5
2 1 1 1 1 1 2 4 4 4 5 4 3 3 5 7 8 8 9 9 9 9 9 9 9 9 9 9 9 9 8 8 7 6 5 4 3 3 1 0 1 2 3 4
4 2 2 0 1 1 2 4 5 4 3 4 3 3 4 7 8 8 9 9 9 9 9 9 9 10 9 9 9 9 8 8 7 7 6 6 5 4 3 2 1 0 2 2
3 3 4 3 3 3 4 6 6 4 3 4 5 5 4 6 7 7 7 8 8 8 9 9 9 9 9 9 9 9 9 8 7 7 7 6 6 5 5 4 2 1 0 1
3 2 2 2 2 2 3 5 6 5 5 3 5 5 5 5 5 6 6 7 8 8 9 9 9 8 8 8 8 8 8 7 7 6 6 6 5 5 5 4 3 2 1 0
3 2 2 1 1 1 2 5 4 5 5 4 5 5 5 5 6 6 6 6 7 7 7 7 8 8 8 8 8 8 8 8 7 6 6 5 5 5 5 4 3 2 2 1
4 3 3 2 3 3 1 4 3 3 4 4 3 3 4 4 5 4 5 5 6 6 6 7 6 6 6 7 7 7 7 7 6 6 6 6 6 5 5 4 4 3 2 1
4 3 1 3 4 1 2 2 3 2 3 3 3 4 5 5 4 5 5 5 5 6 6 6 6 6 5 5 6 6 6 6 6 6 6 7 6 6 5 5 4 4 3 2
4 3 2 2 3 2 4 2 2 2 1 2 2 4 4 3 2 3 5 5 5 5 5 5 5 5 5 5 6 6 6 6 6 6 6 7 7 6 6 5 5 4 4 3
2 2 2 2 2 1 3 3 2 2 1 2 3 3 2 1 0 1 3 4 4 4 4 4 5 5 5 6 5 5 6 6 6 6 6 6 6 6 6 6 6 4 4 4
1 1 2 2 3 1 2 1 0 1 1 2 3 4 3 2 2 1 3 3 3 3 4 4 5 5 5 6 5 5 5 6 6 6 6 6 6 7 6 6 5 5 4 4
2 2 2 2 3 3 2 1 1 2 3 3 4 4 4 3 3 2 2 3 3 3 4 4 4 5 5 5 5 5 5 6 6 6 7 7 7 7 6 6 6 5 5 5
2 1 1 1 2 3 2 2 3 2 2 3 3 3 2 1 1 1 2 2 3 3 4 4 4 5 5 5 5 6 6 6 6 6 7 7 7 7 6 6 6 5 5 5
2 2 1 3 3 4 4 3 3 2 3 3 3 2 2 1 2 2 2 3 3 3 3 4 5 6 6 6 6 6 7 6 6 7 7 7 7 7 7 6 5 5 5 6
3 4 3 4 3 3 4 5 4 4 3 3 2 1 1 2 3 3 3 3 3 4 4 4 5 6 7 7 7 7 6 6 7 7 7 7 7 7 7 7 6 7 7 8
5 6 6 5 2 3 3 5 5 5 3 3 1 0 1 1 3 4 4 4 4 5 5 5 6 7 7 7 8 7 7 6 7 7 7 6 6 6 6 7 8 10 11 13
Wind_Direction
192 220 232 239 240 257 286 287 286 285 285 276 264 268 273 264 253 251 250 245 239 225 221 198 179 178 179 165 156 173 190 183 171 172 186 183 185 178 174 173 167 173 169 165
220 239 250 260 264 266 272 279 283 287 275 279 271 274 275 265 256 248 237 231 229 225 205 188 179 172 175 163 167 182 190 184 181 175 183 180 173 177 181 176 173 174 169 167
233 263 274 261 265 269 268 267 278 289 303 280 274 281 275 267 253 245 229 216 221 221 200 185 177 179 163 152 169 184 185 182 180 170 165 176 172 166 180 182 181 178 174 171
254 271 273 266 268 268 274 271 277 287 294 289 286 303 310 285 251 251 240 220 223 215 184 175 174 176 162 160 173 178 177 172 171 169 177 182 190 198 195 185 185 176 175 175
270 298 292 274 276 273 272 299 290 279 280 286 253 238 329 9 24 358 347 163 221 181 160 150 157 156 146 146 166 178 175 171 162 171 193 195 199 205 188 179 175 175 173 178
254 261 288 282 288 269 278 295 277 261 261 280 274 183 16 13 4 354 14 46 52 78 110 104 95 94 97 116 147 155 163 166 167 178 197 202 201 195 182 178 177 172 170 173
286 210 209 260 296 258 259 296 284 234 226 269 16 80 37 14 12 15 30 47 54 62 81 82 75 72 73 80 103 132 138 147 165 169 191 197 200 190 182 178 179 173 178 181
315 339 174 220 276 296 261 283 322 323 308 340 54 69 54 30 26 31 41 53 52 53 61 63 62 62 61 56 52 77 96 99 124 139 167 181 179 179 175 174 180 183 182 181
332 27 128 199 241 297 307 279 276 292 303 48 87 101 79 34 37 39 44 45 48 53 57 56 50 48 47 46 39 38 63 63 63 75 80 160 156 154 170 174 185 190 181 174
343 3 354 212 231 233 259 298 304 310 333 50 96 65 17 11 29 40 45 44 46 48 50 50 46 42 39 37 35 34 39 44 38 38 42 53 113 170 194 190 191 190 182 176
334 356 340 111 13 346 329 317 305 306 316 349 74 53 16 33 47 54 52 49 47 49 50 48 47 42 40 37 36 35 33 35 32 25 25 36 24 24 225 202 196 192 185 180
336 328 306 250 129 280 299 332 332 345 339 354 80 63 32 55 60 63 61 55 52 54 52 48 45 43 41 37 33 33 35 33 26 20 24 34 28 17 14 310 207 186 179 180
332 337 327 154 115 335 341 351 339 338 344 8 65 98 65 64 64 63 63 59 53 51 49 46 43 39 35 33 30 28 30 27 21 20 22 27 24 15 5 8 26 129 173 171
318 13 36 32 13 358 354 359 1 15 23 29 72 113 94 72 69 63 61 61 57 51 46 42 38 36 31 29 27 23 21 19 17 18 21 21 14 9 5 6 13 13 127 173
328 37 35 11 5 26 13 7 13 20 15 58 75 81 95 88 83 75 67 61 56 49 43 37 33 29 25 24 21 20 16 13 12 15 16 12 7 7 7 7 6 5 5 218
344 5 349 325 49 4 14 13 16 16 19 60 80 72 77 82 75 66 59 55 51 45 39 34 30 25 20 18 13 10 8 7 8 10 6 3 5 4 3 359 355 353 343 303
347 359 0 330 320 298 20 15 14 42 26 14 48 84 86 81 76 67 57 51 48 39 33 28 21 17 14 11 8 3 357 359 4 3 0 358 357 356 351 346 341 331 318 293
340 345 326 316 332 356 119 60 23 42 41 43 68 82 80 84 78 66 62 56 44 34 23 16 11 6 4 4 2 354 353 356 358 357 356 354 351 344 340 336 326 314 305 284
343 334 335 327 304 216 133 108 27 355 65 54 77 90 90 98 107 77 61 50 43 30 19 8 360 355 355 358 357 352 349 351 352 349 346 342 337 331 326 320 311 306 299 287
297 303 316 316 311 312 117 107 41 339 182 68 75 84 82 32 334 69 52 44 32 24 13 2 352 351 351 349 351 348 340 342 338 333 328 324 320 316 310 304 298 291 284 274
263 259 259 272 275 293 103 143 240 256 170 84 62 64 64 60 79 81 42 30 22 13 0 354 345 339 335 337 339 329 324 322 318 315 311 309 308 304 297 295 290 281 275 270
248 245 229 236 249 242 131 150 155 132 106 90 72 62 61 66 62 41 17 1 357 352 346 345 336 324 323 326 324 313 306 304 309 310 308 306 304 302 300 293 289 278 266 263
230 264 288 246 213 137 148 116 104 90 102 89 86 69 62 43 23 350 336 337 336 336 334 334 322 313 314 318 319 311 307 311 311 307 302 300 300 298 296 290 286 283 271 262
192 143 250 273 231 169 168 151 130 107 105 90 87 76 43 343 330 328 323 323 322 320 317 316 312 309 309 312 311 303 303 306 303 301 301 299 299 297 296 292 282 273 267 265
232 176 224 253 229 182 190 177 157 134 118 111 100 81 34 332 315 315 310 310 311 311 310 309 303 298 299 303 302 301 300 301 296 293 293 295 293 291 290 285 279 275 264 263
203 194 198 224 199 174 157 146 146 152 162 159 159 255 309 294 299 310 307 308 309 308 306 302 298 296 297 300 299 298 298 295 292 293 293 291 290 287 285 286 287 278 274 278
Height
1470 1472 1469 1466 1465 1463 1461 1459 1456 1451 1447 1447 1444 1440 1436 1434 1434 1433 1432 1433 1433 1434 1436 1438 1440 1442 1444 1447 1449 1453 1455 1458 1461 1465 1469 1472 1476 1481 1485 1489 1493 1497 1500 1504
1469 1467 1463 1461 1461 1460 1460 1459 1455 1449 1445 1444 1440 1436 1432 1430 1430 1429 1430 1430 1430 1431 1433 1435 1437 1439 1442 1443 1446 1449 1451 1455 1458 1462 1465 1469 1473 1478 1482 1486 1490 1493 1496 1500
1465 1462 1459 1459 1459 1459 1458 1458 1454 1450 1446 1442 1440 1436 1430 1426 1426 1426 1427 1427 1428 1429 1431 1433 1435 1437 1439 1441 1443 1446 1449 1453 1456 1459 1463 1466 1470 1475 1479 1483 1486 1489 1493 1497
1461 1459 1458 1458 1458 1457 1456 1450 1449 1448 1450 1447 1442 1443 1430 1425 1425 1425 1425 1426 1427 1428 1430 1432 1433 1435 1437 1440 1442 1445 1447 1449 1453 1457 1460 1463 1466 1470 1475 1479 1482 1486 1489 1493
1460 1458 1458 1458 1456 1455 1453 1448 1448 1447 1448 1447 1441 1444 1436 1428 1427 1427 1426 1426 1427 1429 1430 1432 1433 1435 1437 1439 1442 1444 1446 1448 1450 1454 1458 1461 1464 1468 1472 1475 1478 1482 1485 1489
1458 1457 1458 1456 1454 1453 1452 1450 1447 1445 1447 1448 1437 1439 1441 1435 1433 1430 1427 1427 1428 1429 1430 1432 1434 1435 1436 1439 1442 1443 1445 1447 1449 1452 1455 1458 1461 1465 1468 1471 1475 1478 1481 1484
1456 1455 1456 1456 1455 1452 1453 1454 1452 1449 1448 1443 1431 1437 1444 1438 1435 1432 1430 1430 1430 1431 1431 1433 1434 1435 1437 1439 1441 1442 1444 1446 1448 1450 1453 1455 1459 1461 1464 1468 1471 1474 1477 1480
1458 1457 1455 1455 1454 1454 1452 1453 1454 1450 1444 1439 1433 1441 1445 1441 1438 1435 1434 1433 1433 1433 1434 1435 1436 1437 1438 1440 1441 1442 1443 1446 1447 1449 1452 1454 1456 1459 1461 1464 1467 1470 1473 1476
1456 1457 1453 1452 1452 1453 1452 1451 1447 1449 1439 1439 1438 1441 1442 1442 1441 1439 1438 1438 1437 1437 1437 1437 1438 1438 1439 1440 1441 1442 1443 1445 1447 1448 1451 1453 1455 1457 1459 1462 1465 1467 1470 1472
1455 1457 1453 1451 1451 1451 1451 1449 1448 1448 1443 1440 1440 1445 1452 1448 1447 1445 1444 1443 1443 1442 1441 1441 1441 1441 1441 1441 1442 1443 1444 1445 1446 1448 1450 1452 1453 1455 1457 1459 1461 1463 1466 1468
1454 1457 1455 1452 1453 1452 1451 1448 1445 1444 1442 1443 1447 1458 1454 1452 1450 1450 1449 1448 1447 1446 1445 1445 1445 1444 1444 1443 1444 1444 1445 1445 1447 1448 1449 1451 1452 1453 1455 1457 1458 1460 1462 1464
1454 1455 1457 1452 1450 1450 1450 1448 1447 1449 1448 1441 1450 1464 1455 1454 1454 1453 1453 1453 1452 1451 1450 1449 1449 1448 1447 1446 1446 1446 1446 1447 1447 1448 1449 1450 1451 1452 1453 1455 1456 1457 1458 1460
1455 1456 1458 1455 1456 1453 1450 1448 1447 1446 1448 1449 1453 1465 1458 1457 1457 1457 1457 1457 1456 1454 1454 1453 1452 1450 1449 1448 1448 1448 1448 1448 1448 1449 1450 1450 1451 1451 1452 1452 1453 1454 1455 1457
1456 1457 1462 1463 1460 1455 1454 1450 1447 1449 1453 1453 1454 1460 1460 1460 1460 1460 1460 1460 1459 1458 1457 1456 1455 1454 1452 1451 1451 1450 1450 1449 1449 1450 1450 1450 1450 1450 1450 1450 1451 1451 1452 1453
1456 1459 1459 1458 1455 1454 1455 1453 1451 1451 1450 1454 1456 1457 1461 1462 1463 1463 1463 1463 1462 1461 1460 1459 1458 1457 1455 1454 1453 1452 1451 1450 1450 1450 1449 1449 1449 1449 1448 1448 1448 1449 1449 1450
1456 1458 1459 1459 1454 1454 1456 1454 1454 1454 1453 1454 1456 1461 1462 1463 1464 1464 1465 1464 1464 1463 1463 1462 1460 1459 1457 1456 1454 1453 1452 1451 1450 1449 1448 1448 1447 1446 1446 1446 1446 1446 1446 1446
1459 1459 1463 1461 1455 1454 1459 1459 1457 1457 1458 1457 1459 1463 1463 1464 1465 1466 1466 1466 1466 1465 1464 1463 1462 1460 1458 1457 1455 1454 1452 1451 1449 1448 1447 1446 1445 1444 1443 1443 1443 1442 1442 1442
1461 1461 1464 1463 1460 1465 1465 1460 1459 1459 1459 1459 1461 1462 1464 1465 1466 1467 1467 1467 1467 1466 1465 1464 1462 1461 1459 1457 1455 1454 1452 1450 1449 1447 1446 1444 1443 1442 1441 1440 1439 1439 1439 1439
1462 1462 1464 1466 1463 1458 1462 1461 1461 1461 1462 1462 1462 1463 1465 1466 1466 1467 1468 1468 1467 1466 1465 1464 1462 1460 1458 1456 1455 1453 1451 1449 1447 1446 1444 1443 1441 1440 1438 1437 1436 1435 1435 1434
1463 1463 1466 1464 1465 1461 1462 1461 1461 1463 1464 1464 1463 1464 1465 1465 1467 1470 1468 1467 1466 1465 1464 1462 1460 1459 1457 1455 1453 1451 1449 1447 1445 1444 1442 1440 1438 1437 1435 1433 1432 1431 1431 1430
1465 1465 1467 1467 1465 1460 1462 1461 1462 1466 1467 1465 1464 1465 1465 1466 1468 1469 1467 1466 1465 1464 1462 1461 1459 1457 1455 1453 1451 1449 1447 1445 1443 1441 1439 1437 1435 1433 1431 1429 1428 1427 1426 1425
1465 1465 1465 1464 1466 1467 1462 1461 1464 1465 1464 1464 1464 1465 1465 1466 1466 1466 1466 1465 1464 1462 1461 1459 1457 1455 1453 1451 1449 1446 1444 1442 1440 1438 1435 1433 1431 1429 1427 1425 1423 1422 1421 1419
1464 1464 1464 1464 1466 1462 1461 1461 1462 1462 1463 1463 1464 1464 1465 1465 1465 1464 1464 1463 1462 1460 1459 1457 1455 1453 1451 1449 1446 1443 1441 1438 1436 1433 1431 1429 1426 1424 1422 1420 1418 1416 1415 1414
1461 1461 1462 1462 1458 1458 1459 1460 1461 1461 1462 1462 1463 1463 1463 1463 1463 1462 1461 1460 1459 1458 1456 1454 1452 1449 1447 1445 1443 1440 1437 1435 1432 1429 1426 1424 1421 1419 1417 1415 1413 1411 1410 1409
1459 1460 1461 1460 1457 1457 1457 1458 1459 1459 1460 1461 1461 1461 1461 1461 1461 1460 1459 1458 1456 1454 1453 1451 1448 1446 1443 1441 1439 1436 1433 1431 1427 1424 1422 1419 1416 1414 1411 1409 1408 1406 1404 1404
1455 1456 1459 1457 1454 1454 1455 1455 1456 1457 1458 1459 1459 1459 1459 1459 1458 1457 1456 1455 1453 1451 1449 1447 1444 1442 1439 1437 1434 1431 1429 1426 1423 1419 1416 1413 1411 1408 1406 1403 1401 1399 1398 1397